Location: Newark
(15.4608°S, 41.1635°W)
Time: 12:22:33
(UTC+00:00)

Envisat - Pass Details

Date: 16 December 2019
Orbit: 764 x 766 km, 98.1° (Epoch: 29 January)

Event Time Altitude Azimuth Distance (km) Brightness Sun altitude
Rises 21:56:01 0° 185° (S) 3,245 6.7 -10.4°
Reaches altitude 10° 21:58:34 10° 195° (SSW) 2,314 6.1 -11.0°
Maximum altitude 22:02:58 30° 255° (WSW) 1,360 5.2 -11.9°
Drops below altitude 10° 22:07:20 10° 315° (NW) 2,297 5.7 -12.8°
Sets 22:09:52 0° 325° (NW) 3,217 6.3 -13.4°
